Time,TemperatureF,DewpointF,PressureIn,WindDirection,WindDirectionDegrees,WindSpeedMPH,WindSpeedGustMPH,Humidity,HourlyPrecipIn,Conditions,Clouds,dailyrainin,SoftwareType,DateUTC
2013-04-08 00:01:00,47.7,41.8,29.99,South,183,7.2,12.3,80,0.00,,,0.00,WUHU21623XXSP,2013-04-08 04:01:00,
2013-04-08 00:05:00,47.7,41.8,30.00,SSW,192,5.1,12.3,80,0.00,,,0.00,WUHU21623XXSP,2013-04-08 04:05:00,
2013-04-08 00:11:00,47.7,41.8,29.98,SSE,161,3.8,8.3,80,0.00,,,0.00,WUHU21623XXSP,2013-04-08 04:11:00,
2013-04-08 00:18:00,47.7,41.8,29.99,South,183,6.3,6.3,80,0.00,,,0.00,WUHU21623XXSP,2013-04-08 04:18:00,
2013-04-08 00:20:00,47.7,41.8,29.99,South,183,13.9,13.9,80,0.00,,,0.00,WUHU21623XXSP,2013-04-08 04:20:00,
2013-04-08 00:26:00,47.7,41.8,29.99,SW,228,3.6,13.9,80,0.00,,,0.00,WUHU21623XXSP,2013-04-08 04:26:00,
2013-04-08 00:33:00,47.8,41.9,29.99,SSW,206,8.3,8.9,80,0.00,,,0.00,WUHU21623XXSP,2013-04-08 04:33:00,
2013-04-08 00:39:00,47.8,41.9,29.99,SE,138,4.7,8.3,80,0.00,,,0.00,WUHU21623XXSP,2013-04-08 04:39:00,
2013-04-08 00:45:00,47.8,41.9,29.99,SSE,161,7.4,7.4,80,0.00,,,0.00,WUHU21623XXSP,2013-04-08 04:45:00,
2013-04-08 00:52:00,47.8,41.9,29.98,South,183,4.7,7.6,80,0.00,,,0.00,WUHU21623XXSP,2013-04-08 04:52:00,
2013-04-08 00:58:00,47.8,42.2,29.99,SSE,161,6.3,6.3,81,0.00,,,0.00,WUHU21623XXSP,2013-04-08 04:58:00,
2013-04-08 01:04:00,47.8,42.2,29.98,SSE,161,6.3,6.3,81,0.00,,,0.00,WUHU21623XXSP,2013-04-08 05:04:00,
2013-04-08 01:11:00,47.7,41.8,29.98,South,183,3.1,6.3,80,0.00,,,0.00,WUHU21623XXSP,2013-04-08 05:11:00,
2013-04-08 01:17:00,47.8,41.9,29.98,SSW,206,6.7,11.2,80,0.00,,,0.00,WUHU21623XXSP,2013-04-08 05:17:00,
2013-04-08 01:24:00,47.8,42.2,29.97,SSW,206,3.8,8.9,81,0.00,,,0.00,WUHU21623XXSP,2013-04-08 05:24:00,
2013-04-08 01:30:00,47.7,41.8,29.97,South,183,6.7,6.7,80,0.00,,,0.00,WUHU21623XXSP,2013-04-08 05:30:00,
2013-04-08 01:37:00,47.5,41.6,29.97,SSE,161,4.0,8.3,80,0.00,,,0.00,WUHU21623XXSP,2013-04-08 05:37:00,
2013-04-08 01:43:00,47.3,41.6,29.97,South,183,6.5,8.3,80,0.00,,,0.00,WUHU21623XXSP,2013-04-08 05:43:00,
2013-04-08 01:49:00,47.3,41.5,29.96,SSW,206,5.4,6.5,80,0.00,,,0.00,WUHU21623XXSP,2013-04-08 05:49:00,
2013-04-08 01:56:00,47.3,41.5,29.97,South,174,3.8,5.4,80,0.00,,,0.00,WUHU21623XXSP,2013-04-08 05:56:00,
2013-04-08 02:03:00,47.3,41.5,29.97,South,183,4.5,4.5,80,0.00,,,0.00,WUHU21623XXSP,2013-04-08 06:03:00,
2013-04-08 02:09:00,47.5,41.6,29.97,SSE,161,3.0,4.5,80,0.00,,,0.00,WUHU21623XXSP,2013-04-08 06:09:00,
2013-04-08 02:15:00,47.5,41.6,29.97,SSW,206,1.8,3.1,80,0.00,,,0.00,WUHU21623XXSP,2013-04-08 06:15:00,
2013-04-08 02:22:00,47.5,41.6,29.96,SSW,206,2.2,3.1,80,0.00,,,0.00,WUHU21623XXSP,2013-04-08 06:22:00,
2013-04-08 02:28:00,47.7,41.8,29.96,SW,228,0.7,2.2,80,0.00,,,0.00,WUHU21623XXSP,2013-04-08 06:28:00,
2013-04-08 02:34:00,47.8,41.9,29.96,SW,228,0.0,2.5,80,0.00,,,0.00,WUHU21623XXSP,2013-04-08 06:34:00,
2013-04-08 02:41:00,48.0,42.1,29.96,WSW,251,0.0,2.5,80,0.00,,,0.00,WUHU21623XXSP,2013-04-08 06:41:00,
2013-04-08 02:47:00,48.4,41.9,29.96,West,273,0.0,0.0,79,0.00,,,0.00,WUHU21623XXSP,2013-04-08 06:47:00,
2013-04-08 02:54:00,48.4,42.1,29.95,SSE,161,0.0,1.1,79,0.00,,,0.00,WUHU21623XXSP,2013-04-08 06:54:00,
2013-04-08 03:00:00,48.6,41.9,29.95,SSE,161,0.0,0.7,78,0.00,,,0.00,WUHU21623XXSP,2013-04-08 07:00:00,
2013-04-08 03:07:00,48.7,42.1,29.95,SSE,161,0.9,1.6,78,0.00,,,0.00,WUHU21623XXSP,2013-04-08 07:07:00,
2013-04-08 03:13:00,48.7,41.8,29.95,SSE,161,0.0,1.6,77,0.00,,,0.00,WUHU21623XXSP,2013-04-08 07:13:00,
2013-04-08 03:20:00,48.7,41.8,29.95,SSE,161,0.0,0.9,77,0.00,,,0.00,WUHU21623XXSP,2013-04-08 07:20:00,
2013-04-08 03:26:00,48.9,42.0,29.95,South,183,0.9,0.9,77,0.00,,,0.00,WUHU21623XXSP,2013-04-08 07:26:00,
2013-04-08 03:32:00,48.9,41.6,29.95,South,183,0.0,0.9,76,0.00,,,0.00,WUHU21623XXSP,2013-04-08 07:32:00,
2013-04-08 03:39:00,48.9,41.6,29.95,South,183,0.0,0.0,76,0.00,,,0.00,WUHU21623XXSP,2013-04-08 07:39:00,
2013-04-08 03:45:00,48.9,41.3,29.95,North,3,0.9,0.9,75,0.00,,,0.00,WUHU21623XXSP,2013-04-08 07:45:00,
2013-04-08 03:52:00,48.9,41.3,29.96,North,3,0.0,0.9,75,0.00,,,0.00,WUHU21623XXSP,2013-04-08 07:52:00,
2013-04-08 03:58:00,48.9,41.3,29.96,North,3,1.8,1.8,75,0.00,,,0.00,WUHU21623XXSP,2013-04-08 07:58:00,
2013-04-08 04:05:00,48.9,41.3,29.96,North,3,1.8,1.8,75,0.00,,,0.00,WUHU21623XXSP,2013-04-08 08:05:00,
2013-04-08 04:11:00,48.9,41.3,29.97,North,3,0.9,2.0,75,0.00,,,0.00,WUHU21623XXSP,2013-04-08 08:11:00,
2013-04-08 04:17:00,48.9,41.3,29.96,NNE,26,0.7,1.3,75,0.00,,,0.00,WUHU21623XXSP,2013-04-08 08:17:00,
2013-04-08 04:24:00,48.9,41.3,29.97,North,3,0.0,0.7,75,0.00,,,0.00,WUHU21623XXSP,2013-04-08 08:24:00,
2013-04-08 04:31:00,48.9,41.3,29.97,NW,318,0.0,0.0,75,0.00,,,0.00,WUHU21623XXSP,2013-04-08 08:31:00,
2013-04-08 04:37:00,48.9,40.9,29.97,SE,138,0.0,0.7,74,0.00,,,0.00,WUHU21623XXSP,2013-04-08 08:37:00,
2013-04-08 04:43:00,48.7,40.7,29.97,WSW,251,0.0,1.3,74,0.00,,,0.00,WUHU21623XXSP,2013-04-08 08:43:00,
2013-04-08 04:50:00,48.7,41.1,29.97,SSW,206,0.7,1.3,75,0.00,,,0.00,WUHU21623XXSP,2013-04-08 08:50:00,
2013-04-08 04:56:00,48.7,40.7,29.97,SSW,206,0.9,0.9,74,0.00,,,0.00,WUHU21623XXSP,2013-04-08 08:56:00,
2013-04-08 05:02:00,48.7,40.7,29.97,SSW,206,0.0,1.1,74,0.00,,,0.00,WUHU21623XXSP,2013-04-08 09:02:00,
2013-04-08 05:09:00,48.7,40.7,29.97,WSW,251,0.0,0.0,74,0.00,,,0.00,WUHU21623XXSP,2013-04-08 09:09:00,
2013-04-08 05:15:00,48.7,40.7,29.96,SE,138,0.0,0.0,74,0.00,,,0.00,WUHU21623XXSP,2013-04-08 09:15:00,
2013-04-08 05:22:00,48.7,40.7,29.97,SE,138,0.0,0.0,74,0.00,,,0.00,WUHU21623XXSP,2013-04-08 09:22:00,
2013-04-08 05:30:00,48.6,40.6,29.97,SSE,161,0.0,0.7,74,0.00,,,0.00,WUHU21623XXSP,2013-04-08 09:30:00,
2013-04-08 05:37:00,48.6,40.6,29.97,SSE,161,0.0,0.0,74,0.00,,,0.00,WUHU21623XXSP,2013-04-08 09:37:00,
2013-04-08 05:43:00,48.6,40.6,29.98,SSE,161,0.0,0.0,74,0.00,,,0.00,WUHU21623XXSP,2013-04-08 09:43:00,
2013-04-08 05:50:00,48.4,40.4,29.98,SSE,161,0.0,0.9,74,0.00,,,0.00,WUHU21623XXSP,2013-04-08 09:50:00,
2013-04-08 05:56:00,48.4,40.4,29.98,South,183,0.0,0.9,74,0.00,,,0.00,WUHU21623XXSP,2013-04-08 09:56:00,
2013-04-08 06:02:00,48.4,40.4,29.97,South,183,0.0,0.9,74,0.00,,,0.00,WUHU21623XXSP,2013-04-08 10:02:00,
2013-04-08 06:09:00,48.4,40.4,29.98,South,183,1.6,1.6,74,0.00,,,0.00,WUHU21623XXSP,2013-04-08 10:09:00,
2013-04-08 06:15:00,48.2,40.2,29.98,South,183,1.3,1.6,74,0.00,,,0.00,WUHU21623XXSP,2013-04-08 10:15:00,
2013-04-08 06:22:00,48.4,40.4,29.99,SSW,206,0.9,1.3,74,0.00,,,0.00,WUHU21623XXSP,2013-04-08 10:22:00,
2013-04-08 06:28:00,48.4,40.0,29.99,SW,228,2.2,2.2,73,0.00,,,0.00,WUHU21623XXSP,2013-04-08 10:28:00,
2013-04-08 06:35:00,48.4,40.0,29.99,SSW,206,2.7,2.7,73,0.00,,,0.00,WUHU21623XXSP,2013-04-08 10:35:00,
2013-04-08 06:41:00,48.4,40.4,29.99,SSW,206,2.0,2.7,74,0.00,,,0.00,WUHU21623XXSP,2013-04-08 10:41:00,
2013-04-08 06:48:00,48.4,40.4,30.00,SW,228,0.0,2.0,74,0.00,,,0.00,WUHU21623XXSP,2013-04-08 10:48:00,
2013-04-08 06:54:00,48.6,40.6,30.00,WSW,251,0.0,0.0,74,0.00,,,0.00,WUHU21623XXSP,2013-04-08 10:54:00,
2013-04-08 07:00:00,48.6,40.6,30.00,WSW,251,0.0,0.0,74,0.00,,,0.00,WUHU21623XXSP,2013-04-08 11:00:00,
2013-04-08 07:07:00,48.7,40.7,30.01,WSW,251,0.0,0.0,74,0.00,,,0.00,WUHU21623XXSP,2013-04-08 11:07:00,
2013-04-08 07:15:00,48.9,40.7,30.01,WSW,251,0.0,0.0,74,0.00,,,0.00,WUHU21623XXSP,2013-04-08 11:15:00,
2013-04-08 07:22:00,48.9,41.3,30.02,SSW,206,0.7,0.7,74,0.00,,,0.00,WUHU21623XXSP,2013-04-08 11:22:00,
2013-04-08 07:29:00,49.1,41.5,30.02,SW,228,1.3,1.3,75,0.00,,,0.00,WUHU21623XXSP,2013-04-08 11:29:00,
2013-04-08 07:35:00,49.3,41.6,30.02,WSW,251,0.0,1.3,75,0.00,,,0.00,WUHU21623XXSP,2013-04-08 11:35:00,
2013-04-08 07:41:00,49.3,41.6,30.02,WSW,251,0.0,0.0,75,0.00,,,0.00,WUHU21623XXSP,2013-04-08 11:41:00,
2013-04-08 07:48:00,49.6,42.0,30.02,West,273,0.0,0.0,75,0.00,,,0.00,WUHU21623XXSP,2013-04-08 11:48:00,
2013-04-08 07:54:00,49.8,42.2,30.02,SW,228,1.6,1.6,75,0.00,,,0.00,WUHU21623XXSP,2013-04-08 11:54:00,
2013-04-08 08:01:00,50.2,42.5,30.02,SSW,206,0.7,1.6,75,0.00,,,0.00,WUHU21623XXSP,2013-04-08 12:01:00,
2013-04-08 08:07:00,50.7,43.1,30.03,SW,228,1.6,1.6,75,0.00,,,0.00,WUHU21623XXSP,2013-04-08 12:07:00,
2013-04-08 08:13:00,50.9,43.3,30.02,WSW,251,0.0,1.6,75,0.00,,,0.00,WUHU21623XXSP,2013-04-08 12:13:00,
2013-04-08 08:20:00,51.4,43.8,30.02,SW,228,0.0,2.7,75,0.00,,,0.00,WUHU21623XXSP,2013-04-08 12:20:00,
2013-04-08 08:27:00,51.6,44.0,30.02,WSW,251,0.0,1.1,75,0.00,,,0.00,WUHU21623XXSP,2013-04-08 12:27:00,
2013-04-08 08:33:00,52.0,44.3,30.02,WSW,251,0.0,0.0,75,0.00,,,0.00,WUHU21623XXSP,2013-04-08 12:33:00,
2013-04-08 08:39:00,52.3,44.7,30.02,West,273,0.0,0.0,75,0.00,,,0.00,WUHU21623XXSP,2013-04-08 12:39:00,
2013-04-08 08:46:00,52.3,44.3,30.02,WSW,251,0.0,0.0,74,0.00,,,0.00,WUHU21623XXSP,2013-04-08 12:46:00,
2013-04-08 08:52:00,52.9,44.8,30.02,West,273,0.0,1.1,74,0.00,,,0.00,WUHU21623XXSP,2013-04-08 12:52:00,
2013-04-08 08:59:00,53.2,45.2,30.02,SW,228,1.6,2.5,74,0.00,,,0.00,WUHU21623XXSP,2013-04-08 12:59:00,
2013-04-08 09:05:00,53.2,45.2,30.02,WSW,251,0.0,2.5,74,0.00,,,0.00,WUHU21623XXSP,2013-04-08 13:05:00,
2013-04-08 09:12:00,53.4,45.3,30.02,NW,318,0.0,1.8,74,0.00,,,0.00,WUHU21623XXSP,2013-04-08 13:12:00,
2013-04-08 09:18:00,54.1,46.0,30.02,WSW,251,0.7,0.7,74,0.00,,,0.00,WUHU21623XXSP,2013-04-08 13:18:00,
2013-04-08 09:24:00,54.3,45.8,30.04,NNW,341,2.5,2.5,73,0.00,,,0.00,WUHU21623XXSP,2013-04-08 13:24:00,
2013-04-08 09:31:00,54.9,46.3,30.03,West,273,1.1,2.5,73,0.00,,,0.00,WUHU21623XXSP,2013-04-08 13:31:00,
2013-04-08 09:37:00,55.4,46.5,30.02,NNW,341,2.5,2.5,72,0.00,,,0.00,WUHU21623XXSP,2013-04-08 13:37:00,
2013-04-08 09:44:00,55.9,47.0,30.04,NNW,341,1.6,2.5,72,0.00,,,0.00,WUHU21623XXSP,2013-04-08 13:44:00,
2013-04-08 09:50:00,56.8,47.2,30.04,NNW,341,3.1,3.1,70,0.00,,,0.00,WUHU21623XXSP,2013-04-08 13:50:00,
2013-04-08 09:56:00,57.4,47.7,30.04,North,3,5.8,5.8,70,0.00,,,0.00,WUHU21623XXSP,2013-04-08 13:56:00,
2013-04-08 10:03:00,58.3,47.7,30.04,North,3,5.4,6.0,68,0.00,,,0.00,WUHU21623XXSP,2013-04-08 14:03:00,
2013-04-08 10:09:00,58.8,47.9,30.04,NW,318,4.5,5.4,67,0.00,,,0.00,WUHU21623XXSP,2013-04-08 14:09:00,
2013-04-08 10:16:00,59.7,48.3,30.04,NW,318,5.8,5.8,66,0.00,,,0.00,WUHU21623XXSP,2013-04-08 14:16:00,
2013-04-08 10:22:00,60.4,48.9,30.04,North,3,6.3,6.3,66,0.00,,,0.00,WUHU21623XXSP,2013-04-08 14:22:00,
2013-04-08 10:29:00,61.3,49.1,30.04,NNW,341,2.9,6.3,64,0.00,,,0.00,WUHU21623XXSP,2013-04-08 14:29:00,
2013-04-08 10:35:00,61.9,49.2,30.05,NE,48,2.5,5.1,63,0.00,,,0.00,WUHU21623XXSP,2013-04-08 14:35:00,
2013-04-08 10:41:00,62.8,49.5,30.05,NW,318,0.7,5.1,62,0.00,,,0.00,WUHU21623XXSP,2013-04-08 14:41:00,
2013-04-08 10:48:00,63.7,49.9,30.04,NNW,341,5.1,6.3,61,0.00,,,0.00,WUHU21623XXSP,2013-04-08 14:48:00,
2013-04-08 10:54:00,64.2,50.0,30.05,NW,318,2.7,6.3,60,0.00,,,0.00,WUHU21623XXSP,2013-04-08 14:54:00,
2013-04-08 11:01:00,64.9,50.2,30.04,NW,318,4.0,4.0,59,0.00,,,0.00,WUHU21623XXSP,2013-04-08 15:01:00,
2013-04-08 11:07:00,65.1,49.4,30.05,NNW,341,4.7,4.7,57,0.00,,,0.00,WUHU21623XXSP,2013-04-08 15:07:00,
2013-04-08 11:14:00,65.7,50.0,30.05,North,3,5.1,5.1,57,0.00,,,0.00,WUHU21623XXSP,2013-04-08 15:14:00,
2013-04-08 11:20:00,66.0,49.9,30.05,NNW,341,2.9,5.1,56,0.00,,,0.00,WUHU21623XXSP,2013-04-08 15:20:00,
2013-04-08 11:26:00,66.9,50.2,30.05,NNE,26,1.3,3.8,55,0.00,,,0.00,WUHU21623XXSP,2013-04-08 15:26:00,
2013-04-08 11:33:00,67.6,50.4,30.04,NW,318,2.9,3.8,54,0.00,,,0.00,WUHU21623XXSP,2013-04-08 15:33:00,
2013-04-08 11:39:00,68.2,50.4,30.05,NNE,26,6.3,6.3,53,0.00,,,0.00,WUHU21623XXSP,2013-04-08 15:39:00,
2013-04-08 11:46:00,68.7,50.9,30.05,North,3,3.6,6.3,53,0.00,,,0.00,WUHU21623XXSP,2013-04-08 15:46:00,
2013-04-08 11:52:00,69.4,51.0,30.05,North,3,2.0,3.6,52,0.00,,,0.00,WUHU21623XXSP,2013-04-08 15:52:00,
2013-04-08 11:59:00,70.0,51.5,30.05,West,273,1.3,2.0,52,0.00,,,0.00,WUHU21623XXSP,2013-04-08 15:59:00,
2013-04-08 12:05:00,70.7,51.2,30.04,West,273,3.1,3.1,50,0.00,,,0.00,WUHU21623XXSP,2013-04-08 16:05:00,
2013-04-08 12:11:00,71.2,51.7,30.05,NNW,341,1.6,4.7,50,0.00,,,0.00,WUHU21623XXSP,2013-04-08 16:11:00,
2013-04-08 12:18:00,71.8,51.5,30.04,WSW,251,0.0,4.7,49,0.00,,,0.00,WUHU21623XXSP,2013-04-08 16:18:00,
2013-04-08 12:24:00,72.7,52.0,30.04,WSW,251,2.0,4.5,49,0.00,,,0.00,WUHU21623XXSP,2013-04-08 16:24:00,
2013-04-08 12:33:00,73.2,51.7,30.04,West,273,0.7,4.0,47,0.00,,,0.00,WUHU21623XXSP,2013-04-08 16:33:00,
2013-04-08 12:39:00,73.8,51.6,30.04,SSE,161,5.6,8.3,46,0.00,,,0.00,WUHU21623XXSP,2013-04-08 16:39:00,
2013-04-08 12:46:00,74.3,51.5,30.04,South,183,7.4,8.3,45,0.00,,,0.00,WUHU21623XXSP,2013-04-08 16:46:00,
2013-04-08 12:52:00,74.1,50.7,30.04,South,183,9.6,9.6,44,0.00,,,0.00,WUHU21623XXSP,2013-04-08 16:52:00,
2013-04-08 12:59:00,73.9,50.5,30.04,SSE,161,3.4,9.6,44,0.00,,,0.00,WUHU21623XXSP,2013-04-08 16:59:00,
2013-04-08 13:05:00,74.3,50.9,30.04,SW,228,10.5,10.5,44,0.00,,,0.00,WUHU21623XXSP,2013-04-08 17:05:00,
2013-04-08 13:11:00,74.8,50.8,30.04,South,183,11.9,11.9,43,0.00,,,0.00,WUHU21623XXSP,2013-04-08 17:11:00,
2013-04-08 13:18:00,75.0,50.3,30.03,SSE,161,2.9,11.9,42,0.00,,,0.00,WUHU21623XXSP,2013-04-08 17:18:00,
2013-04-08 13:24:00,75.4,50.7,30.04,SE,138,5.1,6.3,42,0.00,,,0.00,WUHU21623XXSP,2013-04-08 17:24:00,
2013-04-08 13:31:00,75.9,51.2,30.03,SSE,161,3.6,5.6,42,0.00,,,0.00,WUHU21623XXSP,2013-04-08 17:31:00,
2013-04-08 13:37:00,75.9,50.5,30.03,SSE,161,3.8,4.0,41,0.00,,,0.00,WUHU21623XXSP,2013-04-08 17:37:00,
2013-04-08 13:44:00,75.7,49.9,30.03,SSE,161,4.7,4.7,41,0.00,,,0.00,WUHU21623XXSP,2013-04-08 17:44:00,
2013-04-08 13:50:00,75.0,49.7,30.02,South,183,5.4,5.4,41,0.00,,,0.00,WUHU21623XXSP,2013-04-08 17:50:00,
2013-04-08 13:56:00,74.8,49.5,30.02,SSE,161,6.3,6.7,41,0.00,,,0.00,WUHU21623XXSP,2013-04-08 17:56:00,
2013-04-08 14:03:00,74.8,49.5,30.02,South,182,2.3,6.3,41,0.00,,,0.00,WUHU21623XXSP,2013-04-08 18:03:00,
2013-04-08 14:09:00,75.0,50.3,30.02,SSW,206,5.1,5.1,42,0.00,,,0.00,WUHU21623XXSP,2013-04-08 18:09:00,
2013-04-08 14:16:00,75.4,50.1,30.02,South,183,2.5,7.6,41,0.00,,,0.00,WUHU21623XXSP,2013-04-08 18:16:00,
2013-04-08 14:22:00,75.7,50.4,30.01,SSW,206,8.1,8.1,41,0.00,,,0.00,WUHU21623XXSP,2013-04-08 18:22:00,
2013-04-08 14:29:00,75.9,50.5,30.01,SSW,206,3.6,8.1,41,0.00,,,0.00,WUHU21623XXSP,2013-04-08 18:29:00,
2013-04-08 14:35:00,76.1,50.7,30.01,SSE,161,2.7,4.9,41,0.00,,,0.00,WUHU21623XXSP,2013-04-08 18:35:00,
2013-04-08 14:42:00,75.9,49.9,30.01,SE,138,2.5,4.9,40,0.00,,,0.00,WUHU21623XXSP,2013-04-08 18:42:00,
2013-04-08 14:48:00,75.7,49.9,30.01,South,183,8.3,8.3,40,0.00,,,0.00,WUHU21623XXSP,2013-04-08 18:48:00,
2013-04-08 14:54:00,75.0,49.1,30.00,South,183,10.1,11.6,40,0.00,,,0.00,WUHU21623XXSP,2013-04-08 18:54:00,
2013-04-08 15:01:00,73.9,48.7,30.00,South,169,6.5,11.6,41,0.00,,,0.00,WUHU21623XXSP,2013-04-08 19:01:00,
2013-04-08 15:07:00,73.6,48.4,30.00,South,183,5.8,8.5,41,0.00,,,0.00,WUHU21623XXSP,2013-04-08 19:07:00,
2013-04-08 15:14:00,73.0,48.5,30.00,SSE,161,4.9,5.8,42,0.00,,,0.00,WUHU21623XXSP,2013-04-08 19:14:00,
2013-04-08 15:20:00,73.0,47.9,30.00,SSE,161,7.2,7.2,41,0.00,,,0.00,WUHU21623XXSP,2013-04-08 19:20:00,
2013-04-08 15:26:00,72.5,47.6,30.00,SSE,161,6.5,7.2,41,0.00,,,0.00,WUHU21623XXSP,2013-04-08 19:26:00,
2013-04-08 15:33:00,72.3,47.3,30.00,South,183,5.6,6.5,42,0.00,,,0.00,WUHU21623XXSP,2013-04-08 19:33:00,
2013-04-08 15:39:00,71.8,47.4,30.00,SSE,161,6.0,6.5,42,0.00,,,0.00,WUHU21623XXSP,2013-04-08 19:39:00,
2013-04-08 15:46:00,71.2,47.1,30.00,SSE,161,4.3,6.5,42,0.00,,,0.00,WUHU21623XXSP,2013-04-08 19:46:00,
2013-04-08 15:52:00,70.7,47.0,29.99,SSW,206,4.3,4.3,43,0.00,,,0.00,WUHU21623XXSP,2013-04-08 19:52:00,
2013-04-08 15:59:00,70.0,46.4,30.00,SE,138,3.8,9.8,43,0.00,,,0.00,WUHU21623XXSP,2013-04-08 19:59:00,
2013-04-08 16:05:00,69.6,46.0,29.99,SSE,161,4.5,9.8,43,0.00,,,0.00,WUHU21623XXSP,2013-04-08 20:05:00,
2013-04-08 16:12:00,69.3,45.7,29.99,SW,228,7.4,9.2,43,0.00,,,0.00,WUHU21623XXSP,2013-04-08 20:12:00,
2013-04-08 16:18:00,68.9,45.4,29.99,South,183,6.7,9.2,43,0.00,,,0.00,WUHU21623XXSP,2013-04-08 20:18:00,
2013-04-08 16:25:00,68.5,45.1,30.00,SE,138,7.6,7.6,43,0.00,,,0.00,WUHU21623XXSP,2013-04-08 20:25:00,
2013-04-08 16:31:00,68.2,44.7,30.00,SSW,206,7.6,8.3,43,0.00,,,0.00,WUHU21623XXSP,2013-04-08 20:31:00,
2013-04-08 16:37:00,67.8,45.0,30.00,SW,228,5.4,8.3,44,0.00,,,0.00,WUHU21623XXSP,2013-04-08 20:37:00,
2013-04-08 16:44:00,67.3,44.5,30.00,SSW,206,3.8,10.3,44,0.00,,,0.00,WUHU21623XXSP,2013-04-08 20:44:00,
2013-04-08 16:50:00,66.9,44.8,30.00,SSE,161,8.1,8.9,45,0.00,,,0.00,WUHU21623XXSP,2013-04-08 20:50:00,
2013-04-08 16:57:00,66.7,44.6,30.00,SE,138,11.2,11.2,45,0.00,,,0.00,WUHU21623XXSP,2013-04-08 20:57:00,
2013-04-08 17:03:00,66.4,44.9,30.00,South,183,4.7,13.6,46,0.00,,,0.00,WUHU21623XXSP,2013-04-08 21:03:00,
2013-04-08 17:09:00,65.7,44.8,30.01,South,183,9.4,13.6,47,0.00,,,0.00,WUHU21623XXSP,2013-04-08 21:09:00,
2013-04-08 17:16:00,64.9,44.3,30.01,SE,138,3.6,9.4,47,0.00,,,0.00,WUHU21623XXSP,2013-04-08 21:16:00,
2013-04-08 17:22:00,64.6,44.9,30.01,SSW,206,4.0,8.5,49,0.00,,,0.00,WUHU21623XXSP,2013-04-08 21:22:00,
2013-04-08 17:29:00,64.0,44.4,30.00,South,172,5.1,7.6,49,0.00,,,0.00,WUHU21623XXSP,2013-04-08 21:29:00,
2013-04-08 17:35:00,63.3,44.7,30.00,ESE,116,2.2,7.6,50,0.00,,,0.00,WUHU21623XXSP,2013-04-08 21:35:00,
2013-04-08 17:42:00,63.0,44.5,30.00,South,183,5.1,5.1,51,0.00,,,0.00,WUHU21623XXSP,2013-04-08 21:42:00,
2013-04-08 17:48:00,62.8,44.8,30.00,SSE,161,4.0,5.1,52,0.00,,,0.00,WUHU21623XXSP,2013-04-08 21:48:00,
2013-04-08 17:54:00,62.2,43.9,30.00,South,183,5.1,6.0,51,0.00,,,0.00,WUHU21623XXSP,2013-04-08 21:54:00,
2013-04-08 18:01:00,61.7,44.2,30.00,SSW,206,5.6,5.6,52,0.00,,,0.00,WUHU21623XXSP,2013-04-08 22:01:00,
2013-04-08 18:07:00,61.3,44.0,30.00,SE,138,4.5,8.1,53,0.00,,,0.00,WUHU21623XXSP,2013-04-08 22:07:00,
2013-04-08 18:14:00,60.6,43.8,30.00,SSE,161,9.6,9.6,54,0.00,,,0.00,WUHU21623XXSP,2013-04-08 22:14:00,
2013-04-08 18:20:00,60.3,44.0,30.00,SSE,151,5.3,9.6,55,0.00,,,0.00,WUHU21623XXSP,2013-04-08 22:20:00,
2013-04-08 18:27:00,59.7,43.5,30.00,South,183,0.0,6.0,55,0.00,,,0.00,WUHU21623XXSP,2013-04-08 22:27:00,
2013-04-08 18:33:00,59.7,44.0,30.00,East,93,2.7,4.3,56,0.00,,,0.00,WUHU21623XXSP,2013-04-08 22:33:00,
2013-04-08 18:39:00,59.7,44.0,30.00,SSE,161,4.0,5.8,56,0.00,,,0.00,WUHU21623XXSP,2013-04-08 22:39:00,
2013-04-08 18:46:00,59.5,43.8,30.00,ESE,116,5.4,5.8,56,0.00,,,0.00,WUHU21623XXSP,2013-04-08 22:46:00,
2013-04-08 18:52:00,59.5,43.8,30.00,South,183,2.5,5.4,56,0.00,,,0.00,WUHU21623XXSP,2013-04-08 22:52:00,
2013-04-08 18:59:00,59.4,44.1,29.99,ESE,116,2.9,4.3,57,0.00,,,0.00,WUHU21623XXSP,2013-04-08 22:59:00,
2013-04-08 19:05:00,59.5,44.1,30.00,SE,138,2.9,3.6,57,0.00,,,0.00,WUHU21623XXSP,2013-04-08 23:05:00,
2013-04-08 19:11:00,59.4,44.1,30.00,SE,138,7.6,7.6,57,0.00,,,0.00,WUHU21623XXSP,2013-04-08 23:11:00,
2013-04-08 19:18:00,58.8,43.9,30.01,SE,138,5.1,7.6,57,0.00,,,0.00,WUHU21623XXSP,2013-04-08 23:18:00,
2013-04-08 19:24:00,58.8,44.0,30.01,SE,138,2.2,5.1,58,0.00,,,0.00,WUHU21623XXSP,2013-04-08 23:24:00,
2013-04-08 19:33:00,58.3,43.6,30.01,SSE,161,2.2,3.6,58,0.00,,,0.00,WUHU21623XXSP,2013-04-08 23:33:00,
2013-04-08 19:39:00,57.9,43.7,30.01,SE,138,2.7,3.6,59,0.00,,,0.00,WUHU21623XXSP,2013-04-08 23:39:00,
2013-04-08 19:46:00,57.7,43.5,30.01,SE,138,0.0,5.4,59,0.00,,,0.00,WUHU21623XXSP,2013-04-08 23:46:00,
2013-04-08 19:52:00,57.7,43.5,30.01,SSE,161,7.6,7.6,59,0.00,,,0.00,WUHU21623XXSP,2013-04-08 23:52:00,
2013-04-08 19:59:00,57.7,44.0,30.02,SE,138,1.8,7.6,60,0.00,,,0.00,WUHU21623XXSP,2013-04-08 23:59:00,
2013-04-08 20:05:00,57.7,44.0,30.01,East,93,2.0,3.4,60,0.00,,,0.00,WUHU21623XXSP,2013-04-09 00:05:00,
2013-04-08 20:12:00,57.9,44.2,30.01,East,93,1.3,2.0,60,0.00,,,0.00,WUHU21623XXSP,2013-04-09 00:12:00,
2013-04-08 20:18:00,57.9,44.2,30.01,East,93,1.8,1.8,60,0.00,,,0.00,WUHU21623XXSP,2013-04-09 00:18:00,
2013-04-08 20:24:00,57.9,44.2,30.01,SE,138,0.7,4.3,60,0.00,,,0.00,WUHU21623XXSP,2013-04-09 00:24:00,
2013-04-08 20:31:00,57.7,44.4,30.01,ESE,116,3.1,4.3,61,0.00,,,0.00,WUHU21623XXSP,2013-04-09 00:31:00,
2013-04-08 20:37:00,57.4,44.5,30.01,ESE,116,3.1,3.8,62,0.00,,,0.00,WUHU21623XXSP,2013-04-09 00:37:00,
2013-04-08 20:46:00,56.8,44.0,30.01,SSE,161,2.0,3.4,62,0.00,,,0.00,WUHU21623XXSP,2013-04-09 00:46:00,
2013-04-08 20:52:00,56.3,44.0,30.02,SSE,161,3.4,3.8,64,0.00,,,0.00,WUHU21623XXSP,2013-04-09 00:52:00,
2013-04-08 20:59:00,55.9,43.9,30.01,SSE,161,4.0,6.7,64,0.00,,,0.00,WUHU21623XXSP,2013-04-09 00:59:00,
2013-04-08 21:05:00,55.6,44.1,30.01,SE,138,2.2,4.0,65,0.00,,,0.00,WUHU21623XXSP,2013-04-09 01:05:00,
2013-04-08 21:12:00,55.6,44.4,30.02,SE,138,2.5,2.5,66,0.00,,,0.00,WUHU21623XXSP,2013-04-09 01:12:00,
2013-04-08 21:18:00,55.4,44.4,30.02,ESE,116,1.3,3.1,66,0.00,,,0.00,WUHU21623XXSP,2013-04-09 01:18:00,
2013-04-08 21:24:00,55.4,44.2,30.02,East,93,2.0,3.1,66,0.00,,,0.00,WUHU21623XXSP,2013-04-09 01:24:00,
2013-04-08 21:31:00,55.6,44.4,30.02,ESE,116,1.8,2.5,66,0.00,,,0.00,WUHU21623XXSP,2013-04-09 01:31:00,
2013-04-08 21:37:00,55.9,44.7,30.02,SE,138,2.2,2.2,66,0.00,,,0.00,WUHU21623XXSP,2013-04-09 01:37:00,
2013-04-08 21:44:00,55.9,44.7,30.01,ESE,116,2.2,2.2,66,0.00,,,0.00,WUHU21623XXSP,2013-04-09 01:44:00,
2013-04-08 21:50:00,55.9,44.7,30.01,SE,138,2.0,2.2,66,0.00,,,0.00,WUHU21623XXSP,2013-04-09 01:50:00,
2013-04-08 21:57:00,55.9,44.7,30.01,East,93,2.0,3.8,66,0.00,,,0.00,WUHU21623XXSP,2013-04-09 01:57:00,
2013-04-08 22:03:00,55.9,44.7,30.01,ESE,116,3.1,4.9,66,0.00,,,0.00,WUHU21623XXSP,2013-04-09 02:03:00,
2013-04-08 22:09:00,55.9,44.7,30.01,SSE,161,4.5,4.9,67,0.00,,,0.00,WUHU21623XXSP,2013-04-09 02:09:00,
2013-04-08 22:16:00,55.9,45.1,30.01,ESE,116,3.1,4.5,67,0.00,,,0.00,WUHU21623XXSP,2013-04-09 02:16:00,
2013-04-08 22:22:00,55.8,44.9,29.99,East,93,3.4,5.4,67,0.00,,,0.00,WUHU21623XXSP,2013-04-09 02:22:00,
2013-04-08 22:29:00,55.6,45.2,29.99,SE,138,2.7,4.0,68,0.00,,,0.00,WUHU21623XXSP,2013-04-09 02:29:00,
2013-04-08 22:35:00,55.2,44.9,30.00,SSE,161,1.6,3.4,68,0.00,,,0.00,WUHU21623XXSP,2013-04-09 02:35:00,
2013-04-08 22:42:00,55.2,44.9,30.00,ESE,116,0.9,1.8,68,0.00,,,0.00,WUHU21623XXSP,2013-04-09 02:42:00,
2013-04-08 22:48:00,55.2,44.9,30.01,SE,138,0.9,2.7,68,0.00,,,0.00,WUHU21623XXSP,2013-04-09 02:48:00,
2013-04-08 22:54:00,55.2,45.3,30.01,SE,138,2.0,3.1,69,0.00,,,0.00,WUHU21623XXSP,2013-04-09 02:54:00,
2013-04-08 23:03:00,55.2,45.3,30.00,South,183,3.1,6.7,69,0.00,,,0.00,WUHU21623XXSP,2013-04-09 03:03:00,
2013-04-08 23:09:00,55.0,45.1,30.00,SE,138,2.2,6.7,69,0.00,,,0.00,WUHU21623XXSP,2013-04-09 03:09:00,
2013-04-08 23:16:00,54.7,44.7,30.00,ESE,116,4.0,4.0,69,0.00,,,0.00,WUHU21623XXSP,2013-04-09 03:16:00,
2013-04-08 23:22:00,54.5,44.5,30.00,SE,136,2.3,4.0,69,0.00,,,0.00,WUHU21623XXSP,2013-04-09 03:22:00,
2013-04-08 23:29:00,54.3,44.8,30.00,ESE,116,1.1,2.5,70,0.00,,,0.00,WUHU21623XXSP,2013-04-09 03:29:00,
2013-04-08 23:35:00,54.1,44.6,29.99,ESE,116,1.8,2.2,70,0.00,,,0.00,WUHU21623XXSP,2013-04-09 03:35:00,
2013-04-08 23:42:00,54.1,44.6,29.99,South,183,2.2,3.6,70,0.00,,,0.00,WUHU21623XXSP,2013-04-09 03:42:00,
2013-04-08 23:48:00,54.0,44.4,29.99,ESE,116,4.3,4.3,71,0.00,,,0.00,WUHU21623XXSP,2013-04-09 03:48:00,
2013-04-08 23:54:00,53.8,44.6,29.99,SSE,161,3.4,4.3,71,0.00,,,0.00,WUHU21623XXSP,2013-04-09 03:54:00,